1485914400.37,9546,9.75,73274.0,-7.31,-14.23,-16.65,0,*6B
1485914401.64,9547,9.75,73272.5,-7.31,-14.15,-16.65,0,*6F
1485914402.9,9548,9.75,73274.5,-7.31,-14.15,-16.65,0,*60
1485914404.13,9549,9.75,73276.5,-7.29,-14.15,-16.65,0,*68
1485914405.39,9550,9.75,73278.8,-7.31,-14.23,-16.65,0,*6C
1485914406.65,9551,9.75,73278.3,-7.31,-14.15,-16.65,0,*68
1485914407.91,9552,9.75,73278.8,-7.31,-14.23,-16.65,0,*6E
1485914409.15,9553,9.75,73278.0,-7.31,-14.15,-16.59,0,*65
1485914410.41,9554,9.75,73276.8,-7.31,-14.15,-16.65,0,*6D
1485914411.65,9555,9.75,73276.0,-7.31,-14.11,-16.59,0,*67
1485914412.88,9556,9.75,73276.5,-7.33,-14.11,-16.65,0,*69
1485914414.1,9557,9.75,73278.5,-7.33,-14.11,-16.59,0,*67
1485914415.31,9558,9.75,73280.8,-7.33,-14.11,-16.59,0,*68
1485914416.53,9559,9.75,73282.5,-7.33,-14.11,-16.59,0,*69
1485914417.76,9560,9.75,73282.5,-7.33,-14.11,-16.65,0,*6C
1485914419.0,9561,9.75,73280.8,-7.33,-14.11,-16.65,0,*6D
1485914420.21,9562,9.75,73280.3,-7.33,-14.11,-16.59,0,*61
1485914421.45,9563,9.75,73282.0,-7.33,-14.11,-16.65,0,*6F
1485914422.68,9564,9.75,73282.5,-7.33,-14.11,-16.65,0,*68
1485914423.92,9565,9.75,73280.8,-7.33,-14.15,-16.65,0,*6D
1485914425.14,9566,9.75,73280.5,-7.33,-14.23,-16.75,0,*6A
1485914426.35,9567,9.75,73284.3,-7.33,-14.15,-16.75,0,*6E
1485914427.61,9568,9.75,73282.8,-7.31,-14.23,-16.65,0,*67
1485914428.88,9569,9.75,73284.5,-7.35,-14.19,-16.65,0,*6B
1485914430.14,9570,9.75,73288.0,-7.35,-14.15,-16.65,0,*6F
1485914431.38,9571,9.75,73286.8,-7.33,-14.11,-16.65,0,*6C
1485914432.64,9572,9.75,73284.0,-7.35,-14.15,-16.69,0,*61
1485914433.88,9573,9.75,73282.3,-7.33,-14.11,-16.65,0,*6E
1485914435.14,9574,9.75,73284.3,-7.33,-14.01,-16.65,0,*68
1485914436.42,9575,9.75,73280.3,-7.35,-14.05,-16.65,0,*6B
1485914437.66,9576,9.75,73282.5,-7.33,-14.15,-16.69,0,*63
1485914438.93,9577,9.75,73280.3,-7.33,-14.01,-16.65,0,*6B
1485914440.19,9578,9.75,73278.3,-7.33,-14.01,-16.65,0,*64
1485914441.43,9579,9.75,73272.8,-7.33,-14.01,-16.59,0,*6A
1485914442.66,9580,9.75,73270.0,-7.33,-14.11,-16.65,0,*62
1485914443.9,9581,9.75,73268.3,-7.33,-14.11,-16.65,0,*63
1485914445.19,9582,9.75,73254.8,-7.35,-14.05,-16.65,0,*63
1485914446.45,9583,9.75,73254.3,-7.33,-14.01,-16.65,0,*60
1485914447.73,9584,9.75,73248.3,-7.35,-14.05,-16.65,0,*65
1485914448.99,9585,9.75,73246.8,-7.33,-13.87,-16.65,0,*6F
1485914450.28,9586,9.75,73250.5,-7.35,-14.01,-16.65,0,*63
1485914451.52,9587,9.75,73246.0,-7.33,-13.97,-16.59,0,*63
1485914452.78,9588,9.75,73246.3,-7.33,-13.97,-16.65,0,*63
1485914454.07,9589,9.75,73248.5,-7.35,-14.01,-16.65,0,*6C
1485914455.31,9590,9.75,73256.3,-7.33,-13.97,-16.59,0,*65
1485914456.57,9591,9.75,73254.3,-7.33,-13.97,-16.65,0,*6B
1485914457.81,9592,9.75,73254.3,-7.33,-13.97,-16.59,0,*67
1485914459.07,9593,9.75,73256.3,-7.33,-13.87,-16.65,0,*68
1485914460.33,9594,9.75,73254.3,-7.33,-14.01,-16.65,0,*66
1485914461.59,9595,9.75,73264.5,-7.33,-13.97,-16.65,0,*6F
1485914462.88,9596,9.75,73262.3,-7.35,-14.01,-16.69,0,*6E
1485914464.14,9597,9.75,73266.8,-7.33,-13.97,-16.65,0,*6D
1485914465.38,9598,9.75,73266.0,-7.33,-14.11,-16.65,0,*6B
1485914466.64,9599,9.75,73268.0,-7.33,-14.01,-16.65,0,*6B
1485914467.9,9600,9.75,73268.0,-7.35,-14.15,-16.69,0,*67
1485914469.12,9601,9.75,73264.5,-7.33,-14.11,-16.75,0,*69
1485914470.33,9602,9.75,73266.3,-7.33,-14.11,-16.75,0,*6A
1485914471.55,9603,9.75,73268.8,-7.33,-14.23,-16.79,0,*66
1485914472.78,9604,9.75,73262.8,-7.35,-14.19,-16.79,0,*6E
1485914474.0,9605,9.75,73270.0,-7.33,-14.23,-16.75,0,*6C
1485914475.22,9606,9.75,73266.3,-7.33,-14.15,-16.79,0,*66
1485914476.43,9607,9.75,73266.8,-7.33,-14.15,-16.79,0,*67
1485914477.67,9608,9.75,73266.5,-7.33,-14.01,-16.79,0,*6D
1485914478.91,9609,9.75,73266.5,-7.35,-14.15,-16.83,0,*6A
1485914480.16,9610,9.75,73264.8,-7.35,-14.15,-16.83,0,*62
1485914481.39,9611,9.75,73268.3,-7.31,-14.11,-16.79,0,*66
1485914482.63,9612,9.75,73266.5,-7.35,-14.15,-16.83,0,*60
1485914483.88,9613,9.75,73270.3,-7.33,-14.01,-16.75,0,*6B
1485914485.12,9614,9.75,73264.8,-7.35,-14.15,-16.79,0,*63
1485914486.38,9615,9.75,73270.8,-7.35,-14.05,-16.79,0,*63
1485914487.65,9616,9.75,73270.3,-7.35,-14.05,-16.79,0,*60
1485914488.91,9617,9.75,73264.8,-7.35,-14.05,-16.83,0,*64
1485914490.15,9618,9.75,73262.0,-7.33,-14.01,-16.75,0,*60
1485914491.42,9619,9.75,73260.0,-7.35,-14.05,-16.79,0,*6F
1485914492.66,9620,9.75,73262.3,-7.33,-14.01,-16.79,0,*67
1485914493.87,9621,9.75,73262.3,-7.33,-14.11,-16.79,0,*67
1485914495.13,9622,9.75,73262.3,-7.35,-14.05,-16.83,0,*62
1485914496.37,9623,9.75,73260.5,-7.33,-14.05,-16.75,0,*6C
1485914497.62,9624,9.75,73264.0,-7.33,-14.01,-16.75,0,*6F
1485914498.88,9625,9.75,73268.3,-7.35,-14.01,-16.41,0,*6F
1485914500.11,9626,9.75,73270.5,-7.33,-13.87,-16.37,0,*62
1485914501.36,9627,9.75,73266.5,-7.29,-13.97,-16.51,0,*69
1485914502.65,9628,9.75,73270.8,-7.35,-14.01,-16.69,0,*68
1485914503.91,9629,9.75,73268.0,-7.35,-14.01,-16.79,0,*68
1485914505.16,9630,9.75,73268.8,-7.33,-13.97,-16.75,0,*62
1485914506.4,9631,9.75,73270.5,-7.33,-14.01,-16.75,0,*6B
1485914507.64,9632,9.75,73270.3,-7.35,-14.15,-16.93,0,*63
1485914508.87,9633,9.75,73268.3,-7.35,-14.15,-16.93,0,*62
1485914510.11,9634,9.75,73264.5,-7.35,-14.19,-16.79,0,*6D
1485914511.35,9635,9.75,73264.0,-7.35,-14.19,-16.93,0,*68
1485914512.58,9636,9.75,73262.5,-7.35,-14.19,-16.93,0,*6B
1485914513.79,9637,9.75,73264.5,-7.33,-14.23,-16.89,0,*6E
1485914514.99,9638,9.75,73264.5,-7.33,-14.11,-16.89,0,*60
1485914516.27,9639,9.75,73264.0,-7.35,-14.15,-17.07,0,*64
1485914517.48,9640,9.75,73260.3,-7.33,-14.19,-16.97,0,*68
1485914518.71,9641,9.75,73262.8,-7.35,-14.19,-16.93,0,*6B
1485914519.95,9642,9.75,73266.3,-7.35,-14.19,-16.97,0,*6C
1485914521.21,9643,9.75,73266.0,-7.35,-14.29,-17.07,0,*66
1485914522.45,9644,9.75,73268.3,-7.35,-14.19,-16.97,0,*6A
1485914523.66,9645,9.75,73264.8,-7.33,-14.19,-16.97,0,*6D
1485914524.92,9646,9.75,73270.0,-7.35,-14.29,-17.07,0,*63
1485914526.19,9647,9.75,73270.3,-7.35,-14.19,-17.07,0,*61
1485914527.46,9648,9.75,73268.0,-7.35,-14.19,-17.07,0,*6E
1485914528.73,9649,9.75,73270.0,-7.35,-14.19,-17.07,0,*6F
1485914529.97,9650,9.75,73270.8,-7.35,-14.19,-16.93,0,*6B
1485914531.24,9651,9.75,73274.0,-7.35,-14.19,-17.07,0,*66
1485914532.5,9652,9.75,73268.3,-7.35,-14.29,-17.11,0,*61
1485914533.76,9653,9.75,73268.8,-7.35,-14.29,-17.07,0,*67
1485914534.99,9654,9.75,73272.8,-7.37,-14.29,-17.11,0,*65
1485914536.24,9655,9.75,73278.3,-7.37,-14.19,-17.07,0,*60
1485914537.51,9656,9.75,73270.3,-7.35,-14.19,-17.07,0,*61
1485914538.77,9657,9.75,73266.0,-7.35,-14.19,-17.11,0,*67
1485914540.01,9658,9.75,73268.3,-7.37,-14.19,-17.07,0,*6D
1485914541.28,9659,9.75,73274.5,-7.39,-14.19,-17.11,0,*65
1485914542.52,9660,9.75,73276.8,-7.37,-14.19,-17.07,0,*66
1485914543.78,9661,9.75,73276.3,-7.35,-14.29,-17.07,0,*66
1485914545.05,9662,9.75,73274.5,-7.35,-14.19,-17.07,0,*66
1485914546.3,9663,9.75,73274.5,-7.37,-14.15,-17.07,0,*69
1485914547.55,9664,9.75,73266.8,-7.37,-14.19,-17.07,0,*62
1485914548.81,9665,9.75,73260.3,-7.39,-14.19,-17.07,0,*6D
1485914550.08,9666,9.75,73258.5,-7.35,-14.19,-17.07,0,*62
1485914551.32,9667,9.75,73264.0,-7.37,-14.19,-17.11,0,*66
1485914552.6,9668,9.75,73264.3,-7.39,-14.15,-17.07,0,*6C
1485914553.86,9669,9.75,73270.8,-7.37,-14.05,-17.07,0,*62
1485914555.11,9670,9.75,73268.5,-7.37,-14.15,-17.07,0,*6B
1485914556.38,9671,9.75,73268.5,-7.39,-14.15,-17.07,0,*64
1485914557.62,9672,9.75,73268.8,-7.37,-14.05,-16.97,0,*60
1485914558.83,9673,9.75,73268.5,-7.37,-14.15,-16.97,0,*60
1485914560.07,9674,9.75,73264.8,-7.37,-14.05,-16.97,0,*66
1485914561.31,9675,9.75,73268.5,-7.39,-14.15,-16.97,0,*68
1485914562.58,9676,9.75,73266.3,-7.37,-14.05,-17.07,0,*6C
1485914563.82,9677,9.75,73262.8,-7.37,-14.15,-17.07,0,*6C
1485914565.06,9678,9.75,73264.5,-7.37,-14.05,-16.97,0,*6A
1485914566.29,9679,9.75,73270.0,-7.37,-14.05,-16.97,0,*6B
1485914567.52,9680,9.75,73272.0,-7.37,-14.05,-16.93,0,*69
1485914568.76,9681,9.75,73270.0,-7.37,-14.05,-16.93,0,*68
1485914570.02,9682,9.75,73262.5,-7.39,-14.01,-16.93,0,*61
1485914571.25,9683,9.75,73262.3,-7.37,-14.01,-16.97,0,*6A
1485914572.48,9684,9.75,73264.8,-7.37,-14.01,-16.97,0,*6D
1485914573.75,9685,9.75,73266.0,-7.35,-14.05,-16.97,0,*6A
1485914575.04,9686,9.75,73270.0,-7.39,-14.05,-17.07,0,*6D
1485914576.28,9687,9.75,73264.3,-7.37,-14.05,-16.97,0,*6A
1485914577.51,9688,9.75,73264.0,-7.37,-14.05,-16.93,0,*61
1485914578.74,9689,9.75,73276.0,-7.37,-14.05,-16.93,0,*60
1485914579.98,9690,9.75,73280.8,-7.37,-14.05,-16.97,0,*6C
1485914581.21,9691,9.75,73274.0,-7.37,-14.01,-16.97,0,*69
1485914582.45,9692,9.75,73268.3,-7.37,-14.05,-16.97,0,*6E
1485914583.71,9693,9.75,73264.5,-7.35,-14.05,-16.97,0,*6D
1485914585.01,9694,9.75,73270.5,-7.35,-14.05,-17.07,0,*62
1485914586.27,9695,9.75,73268.3,-7.37,-14.05,-17.07,0,*61
1485914587.54,9696,9.75,73268.0,-7.37,-14.05,-17.07,0,*62
1485914588.81,9697,9.75,73276.8,-7.37,-14.05,-17.07,0,*63
1485914590.08,9698,9.75,73272.3,-7.37,-14.05,-17.07,0,*6C
1485914591.35,9699,9.75,73256.8,-7.37,-14.05,-17.07,0,*6D
1485914592.62,9700,9.75,73262.0,-7.37,-14.05,-17.07,0,*6C
1485914593.88,9701,9.75,73260.5,-7.37,-14.05,-17.11,0,*6A
1485914595.15,9702,9.75,73266.3,-7.37,-14.05,-17.07,0,*6E
1485914596.42,9703,9.75,73256.5,-7.37,-14.05,-17.07,0,*6F
1485914597.69,9704,9.75,73260.3,-7.35,-14.15,-17.11,0,*6C
1485914598.96,9705,9.75,73264.5,-7.35,-14.15,-17.07,0,*6A
1485914600.25,9706,9.75,73272.8,-7.35,-14.05,-17.11,0,*6F
1485914601.52,9707,9.75,73266.0,-7.35,-14.15,-17.21,0,*6C
1485914602.75,9708,9.75,73268.8,-7.33,-14.11,-17.03,0,*61
1485914604.02,9709,9.75,73264.8,-7.35,-14.15,-17.21,0,*62
1485914605.29,9710,9.75,73266.3,-7.35,-14.15,-17.11,0,*69
1485914606.55,9711,9.75,73270.0,-7.35,-14.15,-17.21,0,*6B
1485914607.82,9712,9.75,73268.8,-7.35,-14.19,-17.21,0,*64
1485914609.08,9713,9.75,73264.0,-7.35,-14.19,-17.25,0,*61
1485914610.34,9714,9.75,73276.5,-7.35,-14.19,-17.21,0,*62
1485914611.61,9715,9.75,73266.3,-7.35,-14.15,-17.11,0,*6C
1485914612.85,9716,9.75,73264.3,-7.33,-14.11,-17.07,0,*6A
1485914614.11,9717,9.75,73270.3,-7.35,-14.29,-17.21,0,*62
1485914615.37,9718,9.75,73266.0,-7.35,-14.19,-17.21,0,*6E
1485914616.61,9719,9.75,73268.5,-7.33,-14.15,-17.17,0,*60
1485914617.84,9720,9.75,73278.3,-7.33,-14.23,-17.17,0,*6F
1485914619.1,9721,9.75,73274.0,-7.35,-14.29,-17.25,0,*63
1485914620.33,9722,9.75,73266.3,-7.35,-14.19,-17.31,0,*66
1485914621.56,9723,9.75,73268.3,-7.35,-14.19,-17.31,0,*67
1485914622.82,9724,9.75,73268.0,-7.35,-14.29,-17.25,0,*66
1485914624.05,9725,9.75,73270.0,-7.35,-14.29,-17.31,0,*62
1485914625.33,9726,9.75,73268.5,-7.35,-14.43,-17.41,0,*6A
1485914626.56,9727,9.75,73264.3,-7.35,-14.33,-17.31,0,*6B
1485914627.79,9728,9.75,73264.8,-7.33,-14.23,-17.25,0,*66
1485914629.02,9729,9.75,73262.5,-7.35,-14.33,-17.31,0,*65
1485914630.25,9730,9.75,73264.0,-7.35,-14.19,-17.31,0,*65
1485914631.48,9731,9.75,73266.5,-7.35,-14.29,-17.31,0,*67
1485914632.71,9732,9.75,73266.8,-7.33,-14.29,-17.25,0,*67
1485914633.97,9733,9.75,73262.0,-7.35,-14.33,-17.41,0,*69
1485914635.2,9734,9.75,73262.8,-7.37,-14.29,-17.41,0,*67
1485914636.45,9735,9.75,73262.3,-7.33,-14.43,-17.25,0,*6C
1485914637.68,9736,9.75,73262.5,-7.33,-14.37,-17.41,0,*6E
1485914638.97,9737,9.75,73264.3,-7.35,-14.43,-17.45,0,*6E
1485914640.2,9738,9.75,73270.3,-7.33,-14.43,-17.49,0,*6B
1485914641.48,9739,9.75,73274.0,-7.35,-14.43,-17.45,0,*60
1485914642.77,9740,9.75,73274.5,-7.35,-14.47,-17.45,0,*6A
1485914644.06,9741,9.75,73272.5,-7.35,-14.47,-17.55,0,*6A
1485914645.35,9742,9.75,73266.0,-7.35,-14.47,-17.45,0,*68
1485914646.64,9743,9.75,73266.3,-7.35,-14.47,-17.45,0,*69
1485914647.94,9744,9.75,73266.5,-7.35,-14.47,-17.55,0,*6F
1485914649.22,9745,9.75,73268.0,-7.35,-14.43,-17.45,0,*6B
1485914650.5,9746,9.75,73268.8,-7.35,-14.43,-17.45,0,*68
1485914651.79,9747,9.75,73270.3,-7.35,-14.43,-17.41,0,*6D
1485914653.02,9748,9.75,73266.8,-7.37,-14.33,-17.41,0,*67
1485914654.25,9749,9.75,73268.3,-7.37,-14.33,-17.41,0,*66
1485914655.53,9750,9.75,73274.8,-7.39,-14.43,-17.45,0,*63
1485914656.79,9751,9.75,73274.3,-7.37,-14.43,-17.45,0,*6C
1485914658.04,9752,9.75,73272.8,-7.37,-14.43,-17.41,0,*6B
1485914659.33,9753,9.75,73272.3,-7.35,-14.43,-17.41,0,*68
1485914660.62,9754,9.75,73268.5,-7.35,-14.47,-17.41,0,*6B
1485914661.9,9755,9.75,73260.5,-7.35,-14.43,-17.45,0,*6A
1485914663.16,9756,9.75,73256.3,-7.37,-14.43,-17.45,0,*6B
1485914664.42,9757,9.75,73258.8,-7.37,-14.47,-17.55,0,*6F
1485914665.69,9758,9.75,73270.3,-7.37,-14.47,-17.45,0,*61
1485914666.94,9759,9.75,73268.5,-7.37,-14.43,-17.41,0,*60
1485914668.21,9760,9.75,73274.0,-7.37,-14.47,-17.55,0,*6B
1485914669.47,9761,9.75,73272.3,-7.37,-14.47,-17.45,0,*6B
1485914670.73,9762,9.75,73268.3,-7.37,-14.47,-17.55,0,*69
1485914672.0,9763,9.75,73268.3,-7.37,-14.47,-17.45,0,*69
1485914673.23,9764,9.75,73262.5,-7.37,-14.47,-17.31,0,*6D
1485914674.49,9765,9.75,73262.3,-7.39,-14.29,-17.41,0,*6D
1485914675.69,9766,9.75,73266.3,-7.37,-14.33,-17.31,0,*6C
1485914676.89,9767,9.75,73264.0,-7.37,-14.33,-17.31,0,*6D
1485914678.15,9768,9.75,73274.8,-7.37,-14.43,-17.41,0,*62
1485914679.38,9769,9.75,73276.0,-7.37,-14.33,-17.41,0,*64
1485914680.58,9770,9.75,73280.0,-7.37,-14.33,-17.31,0,*6B
1485914681.78,9771,9.75,73270.3,-7.37,-14.33,-17.31,0,*6A
1485914682.98,9772,9.75,73274.0,-7.37,-14.29,-17.31,0,*62
1485914684.24,9773,9.75,73276.0,-7.37,-14.43,-17.41,0,*68
1485914685.49,9774,9.75,73278.8,-7.37,-14.43,-17.45,0,*6B
1485914686.75,9775,9.75,73280.5,-7.35,-14.33,-17.41,0,*6B
1485914688.04,9776,9.75,73276.0,-7.35,-14.43,-17.45,0,*6B
1485914689.27,9777,9.75,73282.3,-7.33,-14.43,-17.35,0,*6B
1485914690.56,9778,9.75,73288.0,-7.35,-14.43,-17.41,0,*61
1485914691.85,9779,9.75,73292.0,-7.35,-14.47,-17.45,0,*60
1485914693.14,9780,9.75,73286.5,-7.35,-14.47,-17.45,0,*66
1485914694.4,9781,9.75,73266.0,-7.35,-14.33,-17.41,0,*60
1485914695.63,9782,9.75,73260.5,-7.37,-14.47,-17.31,0,*65
1485914696.92,9783,9.75,73258.8,-7.35,-14.47,-17.41,0,*61
1485914698.21,9784,9.75,73252.3,-7.35,-14.47,-17.55,0,*63
1485914699.5,9785,9.75,73264.5,-7.35,-14.47,-17.41,0,*67
1485914700.79,9786,9.75,73264.5,-7.35,-14.51,-17.45,0,*67
1485914702.04,9787,9.75,73264.0,-7.33,-14.47,-17.35,0,*60
1485914703.33,9788,9.75,73264.8,-7.35,-14.47,-17.45,0,*6E
1485914704.62,9789,9.75,73272.3,-7.35,-14.47,-17.45,0,*6F
1485914705.91,9790,9.75,73274.8,-7.35,-14.47,-17.45,0,*67
1485914707.14,9791,9.75,73272.5,-7.33,-14.43,-17.49,0,*68
1485914708.43,9792,9.75,73276.0,-7.35,-14.51,-17.45,0,*62
1485914709.72,9793,9.75,73280.5,-7.35,-14.51,-17.45,0,*63
1485914711.01,9794,9.75,73278.8,-7.35,-14.47,-17.45,0,*63
1485914712.3,9795,9.75,73280.8,-7.35,-14.51,-17.45,0,*65
1485914713.59,9796,9.75,73276.8,-7.35,-14.47,-17.45,0,*61
1485914714.88,9797,9.75,73274.3,-7.35,-14.47,-17.41,0,*64
1485914716.17,9798,9.75,73278.5,-7.35,-14.51,-17.45,0,*68
1485914717.43,9799,9.75,73276.0,-7.37,-14.47,-17.45,0,*6C
1485914718.66,9800,9.75,73274.0,-7.37,-14.61,-17.55,0,*66
1485914719.91,9801,9.75,73276.0,-7.35,-14.61,-17.55,0,*65
1485914721.2,9802,9.75,73274.5,-7.35,-14.51,-17.55,0,*65
1485914722.45,9803,9.75,73276.8,-7.35,-14.61,-17.55,0,*67
1485914723.71,9804,9.75,73278.5,-7.35,-14.61,-17.55,0,*60
1485914724.94,9805,9.75,73276.5,-7.35,-14.61,-17.69,0,*6E
1485914726.17,9806,9.75,73276.5,-7.35,-14.65,-17.87,0,*69
1485914727.37,9807,9.75,73276.0,-7.37,-14.65,-17.87,0,*6A
1485914728.63,9808,9.75,73278.0,-7.39,-14.79,-17.87,0,*66
1485914729.89,9809,9.75,73274.8,-7.35,-14.75,-17.87,0,*67
1485914731.17,9810,9.75,73276.5,-7.35,-14.75,-17.97,0,*6E
1485914732.4,9811,9.75,73272.5,-7.37,-14.79,-17.87,0,*60
1485914733.66,9812,9.75,73274.3,-7.37,-14.75,-17.97,0,*6E
1485914734.89,9813,9.75,73274.5,-7.37,-14.79,-17.87,0,*62
1485914736.12,9814,9.75,73274.0,-7.37,-14.75,-17.87,0,*69
1485914737.35,9815,9.75,73272.8,-7.37,-14.75,-17.87,0,*68
1485914738.59,9816,9.75,73278.3,-7.37,-14.75,-17.87,0,*6B
1485914739.84,9817,9.75,73276.3,-7.39,-14.75,-17.87,0,*64
1485914741.05,9818,9.75,73280.5,-7.37,-14.65,-17.87,0,*64
1485914742.28,9819,9.75,73282.5,-7.37,-14.75,-17.87,0,*64
1485914743.51,9820,9.75,73278.5,-7.37,-14.75,-17.83,0,*6A
1485914744.72,9821,9.75,73272.5,-7.37,-14.61,-17.87,0,*6A
1485914745.95,9822,9.75,73270.8,-7.39,-14.65,-17.83,0,*67
1485914747.15,9823,9.75,73266.8,-7.37,-14.65,-17.83,0,*68
1485914748.36,9824,9.75,73272.8,-7.37,-14.61,-17.73,0,*64
1485914749.56,9825,9.75,73266.3,-7.37,-14.61,-17.73,0,*65
1485914750.75,9826,9.75,73270.5,-7.37,-14.65,-17.73,0,*62
1485914751.95,9827,9.75,73270.5,-7.37,-14.61,-17.73,0,*67
1485914753.19,9828,9.75,73270.8,-7.37,-14.51,-17.73,0,*6B
1485914754.42,9829,9.75,73266.5,-7.37,-14.51,-17.73,0,*6A
1485914755.63,9830,9.75,73266.3,-7.37,-14.61,-17.83,0,*6E
1485914756.86,9831,9.75,73268.0,-7.39,-14.65,-17.83,0,*65
1485914758.06,9832,9.75,73262.8,-7.37,-14.65,-17.73,0,*67
1485914759.26,9833,9.75,73258.5,-7.37,-14.61,-17.73,0,*62
1485914760.45,9834,9.75,73258.8,-7.37,-14.65,-17.73,0,*61
1485914761.65,9835,9.75,73256.3,-7.37,-14.65,-17.73,0,*60
1485914762.91,9836,9.75,73264.0,-7.37,-14.51,-17.59,0,*6C
1485914764.15,9837,9.75,73270.3,-7.37,-14.51,-17.69,0,*6E
1485914765.39,9838,9.75,73276.0,-7.37,-14.51,-17.69,0,*61
1485914766.62,9839,9.75,73274.5,-7.37,-14.51,-17.69,0,*60
1485914767.82,9840,9.75,73268.3,-7.37,-14.65,-17.69,0,*69
1485914769.02,9841,9.75,73262.5,-7.37,-14.61,-17.73,0,*67
1485914770.26,9842,9.75,73266.8,-7.37,-14.51,-17.69,0,*6C
1485914771.49,9843,9.75,73270.8,-7.37,-14.61,-17.59,0,*6D
1485914772.72,9844,9.75,73270.8,-7.37,-14.51,-17.69,0,*6A
1485914773.92,9845,9.75,73276.8,-7.37,-14.65,-17.73,0,*67
1485914775.15,9846,9.75,73298.8,-7.37,-14.75,-17.73,0,*65
1485914776.38,9847,9.75,73266.5,-7.37,-14.61,-17.59,0,*69
1485914777.64,9848,9.75,73262.5,-7.37,-14.47,-17.55,0,*6E
1485914778.9,9849,9.75,73246.0,-7.37,-14.47,-17.55,0,*6F
1485914780.18,9850,9.75,73250.8,-7.39,-14.43,-17.45,0,*6C
1485914781.48,9851,9.75,73252.5,-7.39,-14.47,-17.97,0,*66
1485914782.74,9852,9.75,73258.3,-7.37,-14.51,-17.97,0,*6C
1485914783.97,9853,9.75,73266.0,-7.37,-14.61,-17.97,0,*6E
1485914785.22,9854,9.75,73270.0,-7.35,-14.65,-18.01,0,*6F
1485914786.48,9855,9.75,73262.5,-7.35,-14.61,-17.97,0,*6A
1485914787.74,9856,9.75,73264.3,-7.35,-14.65,-18.01,0,*6D
1485914788.99,9857,9.75,73266.0,-7.35,-14.61,-17.97,0,*68
1485914790.25,9858,9.75,73270.0,-7.35,-14.65,-18.01,0,*63
1485914791.5,9859,9.75,73268.0,-7.35,-14.65,-18.01,0,*62
1485914792.7,9860,9.75,73264.5,-7.33,-14.61,-18.07,0,*6C
1485914793.96,9861,9.75,73268.8,-7.35,-14.61,-18.01,0,*6D
1485914795.22,9862,9.75,73264.0,-7.35,-14.61,-17.97,0,*6E
1485914796.48,9863,9.75,73270.5,-7.35,-14.61,-17.97,0,*6F
1485914797.73,9864,9.75,73270.3,-7.35,-14.65,-17.97,0,*6C
1485914798.99,9865,9.75,73256.8,-7.35,-14.65,-18.01,0,*6D
1485914800.27,9866,9.75,73260.8,-7.35,-14.75,-18.01,0,*6F
1485914801.48,9867,9.75,73260.3,-7.33,-14.69,-17.93,0,*61
1485914802.76,9868,9.75,73264.8,-7.35,-14.75,-18.01,0,*61
1485914804.02,9869,9.75,73268.8,-7.35,-14.65,-18.01,0,*61
1485914805.24,9870,9.75,73270.5,-7.33,-14.69,-17.97,0,*63
1485914806.52,9871,9.75,73266.0,-7.35,-14.75,-17.97,0,*69
1485914807.81,9872,9.75,73268.3,-7.35,-14.79,-17.97,0,*66
1485914809.09,9873,9.75,73266.0,-7.31,-14.75,-17.97,0,*6F
1485914810.31,9874,9.75,73260.5,-7.33,-14.69,-17.97,0,*67
1485914811.54,9875,9.75,73270.3,-7.33,-14.69,-17.97,0,*66
1485914812.79,9876,9.75,73260.5,-7.33,-14.75,-17.97,0,*68
1485914814.02,9877,9.75,73258.3,-7.33,-14.69,-17.97,0,*64
1485914815.3,9878,9.75,73270.5,-7.35,-14.79,-17.97,0,*6C
1485914816.53,9879,9.75,73266.5,-7.33,-14.75,-18.07,0,*61
1485914817.76,9880,9.75,73264.0,-7.33,-14.75,-18.07,0,*67
1485914819.01,9881,9.75,73266.5,-7.33,-14.75,-17.97,0,*60
1485914820.26,9882,9.75,73266.3,-7.33,-14.75,-17.93,0,*67
1485914821.51,9883,9.75,73264.8,-7.33,-14.75,-17.93,0,*66
1485914822.77,9884,9.75,73270.5,-7.33,-14.83,-17.97,0,*6C
1485914824.03,9885,9.75,73272.0,-7.33,-14.83,-17.97,0,*6D
1485914825.29,9886,9.75,73266.5,-7.35,-14.89,-18.01,0,*62
1485914826.55,9887,9.75,73270.8,-7.33,-14.83,-17.97,0,*6F
1485914827.79,9888,9.75,73266.3,-7.33,-14.83,-18.07,0,*66
1485914829.02,9889,9.75,73268.0,-7.31,-14.89,-18.07,0,*6F
1485914830.25,9890,9.75,73278.3,-7.33,-14.89,-17.97,0,*63
1485914831.48,9891,9.75,73278.5,-7.33,-14.89,-18.01,0,*62
1485914832.74,9892,9.75,73270.5,-7.33,-14.83,-17.97,0,*6B
1485914834.0,9893,9.75,73262.3,-7.33,-14.83,-17.93,0,*6E
1485914835.24,9894,9.75,73266.0,-7.33,-14.83,-17.83,0,*68
1485914836.49,9895,9.75,73272.8,-7.31,-14.75,-17.83,0,*62
1485914837.74,9896,9.75,73264.3,-7.31,-14.75,-17.83,0,*61
1485914839.02,9897,9.75,73264.8,-7.31,-14.75,-17.93,0,*61
1485914840.24,9898,9.75,73272.3,-7.29,-14.79,-17.87,0,*6E
1485914841.5,9899,9.75,73264.3,-7.33,-14.83,-17.93,0,*64
1485914842.74,9900,9.75,73266.3,-7.33,-14.83,-17.83,0,*64
1485914843.99,9901,9.75,73258.3,-7.33,-14.83,-17.93,0,*64
1485914845.23,9902,9.75,73266.5,-7.33,-14.83,-18.07,0,*65
1485914846.5,9903,9.75,73264.0,-7.35,-14.93,-18.01,0,*65
1485914847.73,9904,9.75,73266.3,-7.31,-14.89,-18.07,0,*6B
1485914849.0,9905,9.75,73264.0,-7.31,-14.97,-17.93,0,*67
1485914850.26,9906,9.75,73258.0,-7.31,-14.83,-17.83,0,*60
1485914851.52,9907,9.75,73256.0,-7.31,-14.83,-17.83,0,*61
1485914852.8,9908,9.75,73252.5,-7.31,-14.83,-17.93,0,*6F
1485914854.06,9909,9.75,73258.5,-7.31,-14.83,-17.69,0,*6B
1485914855.34,9910,9.75,73260.3,-7.31,-14.83,-17.79,0,*62
1485914856.59,9911,9.75,73260.3,-7.31,-14.75,-17.69,0,*6B
1485914857.86,9912,9.75,73260.5,-7.31,-14.75,-17.79,0,*69
1485914859.11,9913,9.75,73256.8,-7.31,-14.69,-17.79,0,*65
1485914860.36,9914,9.75,73266.5,-7.31,-14.75,-17.69,0,*6E
1485914861.58,9915,9.75,73262.5,-7.31,-14.69,-17.69,0,*62
1485914862.83,9916,9.75,73270.5,-7.31,-14.75,-17.69,0,*6C
1485914864.05,9917,9.75,73270.0,-7.29,-14.65,-17.63,0,*6F
1485914865.3,9918,9.75,73266.3,-7.31,-14.75,-17.69,0,*62
1485914866.57,9919,9.75,73270.0,-7.31,-14.75,-17.79,0,*62
1485914867.81,9920,9.75,73264.3,-7.31,-14.69,-17.79,0,*65
1485914869.03,9921,9.75,73266.0,-7.29,-14.75,-17.69,0,*61
1485914870.29,9922,9.75,73268.8,-7.31,-14.83,-17.69,0,*62
1485914871.48,9923,9.75,73268.8,-7.29,-14.69,-17.73,0,*65
1485914872.73,9924,9.75,73262.5,-7.31,-14.75,-17.69,0,*6D
1485914873.94,9925,9.75,73264.8,-7.29,-14.69,-17.79,0,*69
1485914875.16,9926,9.75,73266.0,-7.29,-14.79,-17.73,0,*61
1485914876.38,9927,9.75,73266.0,-7.29,-14.79,-17.73,0,*60
1485914877.6,9928,9.75,73258.0,-7.29,-14.65,-17.63,0,*63
1485914878.81,9929,9.75,73272.3,-7.29,-14.69,-17.63,0,*6E
1485914880.03,9930,9.75,73266.8,-7.29,-14.65,-17.63,0,*6A
1485914881.25,9931,9.75,73264.8,-7.29,-14.69,-17.63,0,*67
1485914882.46,9932,9.75,73270.8,-7.29,-14.69,-17.63,0,*64
1485914883.67,9933,9.75,73274.3,-7.29,-14.69,-17.63,0,*65
1485914884.89,9934,9.75,73266.5,-7.29,-14.69,-17.63,0,*62
1485914886.11,9935,9.75,73260.5,-7.29,-14.79,-17.73,0,*63
1485914887.36,9936,9.75,73266.0,-7.29,-14.83,-17.63,0,*64
1485914888.61,9937,9.75,73270.5,-7.29,-14.83,-17.79,0,*6E
1485914889.86,9938,9.75,73274.5,-7.29,-14.83,-17.79,0,*61
1485914891.08,9939,9.75,73268.0,-7.29,-14.83,-17.73,0,*6A
1485914892.3,9940,9.75,73268.3,-7.29,-14.97,-17.87,0,*6A
1485914893.54,9941,9.75,73266.0,-7.29,-14.93,-17.93,0,*6A
1485914894.78,9942,9.75,73268.5,-7.29,-14.97,-18.01,0,*69
1485914896.03,9943,9.75,73272.0,-7.29,-14.93,-18.01,0,*6C
1485914897.27,9944,9.75,73274.0,-7.29,-14.93,-17.93,0,*6F
1485914898.49,9945,9.75,73268.3,-7.29,-14.97,-17.87,0,*6F
1485914899.72,9946,9.75,73272.5,-7.27,-14.89,-17.83,0,*69
1485914900.94,9947,9.75,73272.8,-7.29,-14.97,-17.87,0,*6D
1485914902.16,9948,9.75,73280.5,-7.29,-14.97,-17.87,0,*62
1485914903.38,9949,9.75,73280.8,-7.29,-14.93,-17.87,0,*67
1485914904.61,9950,9.75,73264.0,-7.29,-14.83,-17.87,0,*6E
1485914905.86,9951,9.75,73266.8,-7.29,-14.83,-17.79,0,*6E
1485914907.1,9952,9.75,73260.5,-7.29,-14.83,-17.87,0,*6C
1485914908.33,9953,9.75,73254.0,-7.27,-14.89,-17.83,0,*6D
1485914909.58,9954,9.75,73264.5,-7.27,-14.79,-17.83,0,*65
1485914910.83,9955,9.75,73270.0,-7.27,-14.75,-17.73,0,*67
1485914912.06,9956,9.75,73272.5,-7.27,-14.89,-17.83,0,*68
1485914913.32,9957,9.75,73268.0,-7.27,-14.93,-17.83,0,*62
1485914914.57,9958,9.75,73252.3,-7.27,-14.93,-17.87,0,*69
1485914915.82,9959,9.75,73258.0,-7.27,-14.93,-17.87,0,*68